Regional Weather Roundup
Issued by NWS

Home | Current Version | Previous Version | Graphics & Text | Print | Product List | Glossary On
Versions: 1 2 3 4 5 6 7 8 9 10 11 12 13 14 15 16 17 18 19 20 21 22 23 24 25 26 27 28 29 30 31 32 33 34 35 36 37 38 39 40 41 42 43 44 45 46 47 48 49 50
000
ASUS43 KMPX 022310
RWRMN
WEATHER ROUNDUP FOR MINNESOTA
NATIONAL WEATHER SERVICE TWIN CITIES/CHANHASSEN MN
600 PM CDT WED SEP 02 2015


NOTE: "FAIR" INDICATES FEW OR NO CLOUDS BELOW 12,000 FEET WITH NO
SIGNIFICANT WEATHER AND/OR OBSTRUCTIONS TO VISIBILITY. N/A MEANS
CURRENT SKY AND/OR WEATHER CONDITIONS ARE NOT AVAILABLE.

MNZ060>063-068>070-030000-
   Twin Cities Metro

CITY           SKY/WX    TMP DP  RH WIND       PRES   REMARKS
TWIN CITIES    SUNNY     78  69  73 E10       29.87S
ST PAUL        SUNNY     77  69  76 NE9       29.87F
CRYSTAL        SUNNY     78  68  71 E7        29.86F
BLAINE         MOSUNNY   77  72  83 E8        29.88F
LAKEVILLE      SUNNY     79  73  83 NE9       29.86F
EDEN PRAIRIE   SUNNY     80  71  74 E8        29.85F
SOUTH ST PAUL  SUNNY     78  69  73 E5        29.87S
LAKE ELMO      FAIR      75  70  83 E8        29.89F
$$
MNZ001>005-007-008-013>017-022>024-027-028-030000-
   Northwest Minnesota

CITY           SKY/WX    TMP DP  RH WIND       PRES   REMARKS
BEMIDJI        SUNNY     81  65  58 SE13      29.87S
HALLOCK        SUNNY     91  61  35 S17       29.76F HX  91
ROSEAU         SUNNY     86  66  51 SE9       29.82F
WARROAD        SUNNY     84  70  61 SE9       29.83F
THIEF RVR FALL SUNNY     86  63  45 SE13      29.81S
CROOKSTON      SUNNY     88  63  42 S15       29.79S
FOSSTON        SUNNY     88  61  40 SE9       29.85S
DETROIT LAKES  SUNNY     82  64  54 SE14      29.85S
MOORHEAD       SUNNY     86  66  51 SE14      29.79S
PARK RAPIDS    SUNNY     83  66  56 SE15      29.87F
MAHNOMEN       FAIR      83  66  57 SE12      29.83S
$$
MNZ006-009>011-018-025>026-030000-
   North Central Minnesota

CITY           SKY/WX    TMP DP  RH WIND       PRES   REMARKS
BAUDETTE       SUNNY     84  65  52 SE9       29.86S
FLAG ISLAND    MOSUNNY   79  68  69 S13       29.83S
INTL FALLS     MOSUNNY   82  64  54 S5        29.89S
WASKISH        SUNNY     82  66  57 E8        29.87S
BIG FORK       SUNNY     82  63  51 S8        29.90S
LONGVILLE      SUNNY     79  66  65 SE8       29.89F
GRAND RAPIDS     N/A     79  63  57 S10       29.91F
CRANE LAKE     SUNNY     79  64  61 SE3       29.93S
ORR            SUNNY     79  63  57 CALM      29.90S
COOK           SUNNY     77  64  65 SE7       29.93F
WALKER         FAIR      79  66  64 SE7       29.88S
$$
MNZ012-019>021-037-030000-
   Northeast Minnesota

CITY           SKY/WX    TMP DP  RH WIND       PRES   REMARKS
DULUTH         MOSUNNY   71  64  78 SE10      29.95S
ELY            SUNNY     75  61  60 SE6       29.95S
HIBBING        SUNNY     76  65  68 E9        29.92F
EVELETH        SUNNY     73  63  68 E5        29.95S
DULUTH HARBOR  MOSUNNY   63  61  94 NE3       29.94F
TWO HARBORS    SUNNY     73  66  78 E7        29.93S
SILVER BAY     SUNNY     72  63  73 E6        29.94R
GRAND MARAIS     N/A     63  52  67 NE5       29.95F
G MARAIS ARPRT PTSUNNY   70  57  64 CALM      30.00F
$$
MNZ029>031-032-039>041-046>048-054>057-064-030000-
   West Central Minnesota

CITY           SKY/WX    TMP DP  RH WIND       PRES   REMARKS
FERGUS FALLS   MOSUNNY   82  66  57 SE13      29.81S
WHEATON        MOSUNNY   81  70  69 E16       29.80F
MORRIS         MOSUNNY   82  72  69 SE15      29.82S
ALEXANDRIA     MOSUNNY   78  67  68 SE15G22   29.87F
ELBOW LAKE     FAIR      80  70  71 SE13G21   29.83S
WADENA         SUNNY     81  66  61 SE13      29.86F
GLENWOOD       MOSUNNY   81  70  69 E13       29.87F
APPLETON       MOSUNNY   84  72  65 E16G22    29.80F
BENSON         MOSUNNY   81  70  69 SE7       29.83S
ORTONVILLE     MOSUNNY   84  72  65 SE14      29.80S
MADISON        MOSUNNY   84  73  70 SE8       29.80F HX  91
WILLMAR        FAIR      81  73  78 E12       29.85F
$$
MNZ033>034-036-042>043-049>051-058-059-030000-
   Central Minnesota

CITY           SKY/WX    TMP DP  RH WIND       PRES   REMARKS
ST CLOUD       SUNNY     76  69  79 SE8       29.88S
SAUK CENTRE    FAIR      77  69  76 E9        29.87F
PAYNESVILLE    PTSUNNY   77  69  75 NE9       29.87F
AITKIN         SUNNY     77  66  69 S8        29.90F
PINE RIVER     SUNNY     77  66  69 SE12      29.93S
BRAINERD       MOSUNNY   75  66  73 E8        29.90F
STAPLES        SUNNY     79  66  65 SE12      29.88S
LONG PRAIRIE   FAIR      75  68  78 E8        29.88S
LITTLE FALLS   SUNNY     75  64  69 E9        29.89S
LITCHFIELD     SUNNY     81  73  78 E8        29.87F
BUFFALO        SUNNY     77  67  72 NE7       29.88S
MAPLE LAKE     SUNNY     77  71  80 E7        29.88F
$$
MNZ037-044-045-052-053-030000-
   East Central Minnesota

CITY           SKY/WX    TMP DP  RH WIND       PRES   REMARKS
PRINCETON      CLOUDY    75  70  83 E7        29.89F
MORA           PTSUNNY   73  64  73 E5        29.92F
CAMBRIDGE      CLOUDY    75  64  69 E7        29.88F
RUSH CITY      CLOUDY    73  67  82 CALM      29.91S
MOOSE LAKE     PTSUNNY   75  64  69 SE3       29.91S
HINCKLEY       CLOUDY    73  68  83 E5        29.92S
CLOQUET        SUNNY     72  63  73 E9        29.94F
MCGREGOR       MOSUNNY   73  64  73 SE6       29.92F
$$
MNZ071>073-080-081-089-090-097-098-030000-
   Southwest Minnesota

CITY           SKY/WX    TMP DP  RH WIND       PRES   REMARKS
MONTEVIDEO     MOSUNNY   84  75  74 SE10      29.83F HX  92
GRANITE FALLS  MOSUNNY   85  74  70 E12       29.83S HX  93
CANBY          MOSUNNY   86  73  64 SE12      29.81F HX  94
MARSHALL       PTSUNNY   86  72  62 SE12      29.83F HX  92
REDWOOD FALLS  MOSUNNY   83  74  74 E6        29.82S
OLIVIA         SUNNY     79  70  73 E9G17     29.84S
PIPESTONE      PTSUNNY   82  73  74 S7        29.84S
WINDOM         MOSUNNY   84  72  65 CALM      29.85S
WORTHINGTON    MOSUNNY   81  72  74 S7        29.85S
JACKSON        MOSUNNY   84  72  65 S7        29.86S
TRACY          PTSUNNY   85  76  73 SE6       29.84S HX  94
SLAYTON        PTSUNNY   83  74  73 S8        29.85S HX  90
$$
MNZ065>067-074>077-082>085-091>093-030000-
   South Central Minnesota

CITY           SKY/WX    TMP DP  RH WIND       PRES   REMARKS
MANKATO        SUNNY     82  73  74 S7        29.85S
NEW ULM        SUNNY     82  72  69 SE5       29.84S
ST JAMES       MOSUNNY   84  75  74 SE5       29.85F HX  92
FAIRMONT       SUNNY     84  68  58 S7        29.85S
GLENCOE        SUNNY     82  75  80 E9        29.85S
FARIBAULT      SUNNY     84  73  70 S3        29.86F HX  91
OWATONNA       SUNNY     82  72  69 S6        29.87S
WASECA         SUNNY     82  72  69 S6        29.87F
ALBERT LEA     SUNNY     84  72  65 S5        29.87F
$$
MNZ078>079-086>088-094>096-030000-
   Southeast Minnesota

CITY           SKY/WX    TMP DP  RH WIND       PRES   REMARKS
ROCHESTER      SUNNY     81  72  74 S10       29.89F
RED WING       SUNNY     79  70  73 E6        29.85F
STANTON        MOSUNNY   84  71  65 CALM      29.84F
DODGE CENTER   SUNNY     81  72  74 S7        29.89F
WINONA         MOSUNNY   82  70  65 CALM      29.88F
AUSTIN         SUNNY     84  72  65 S5        29.88F
PRESTON        CLOUDY    80  71  73 S5        29.92S
$$
ABBREVIATIONS USED IN REMARKS
   TC - TEMPERATURES IN CELSIUS
  WCI - WIND CHILL INDEX
   HX - HEAT INDEX
  VSB - VISIBILITY
$$



USA.gov is the U.S. government's official web portal to all federal, state and local government web resources and services.